sat.trackr.live / text

‹ back to catalog

STARLINK-5817

NORAD 55779 · 2023-028AQ

PAYLOAD ACTIVE UNKNOWN

§ Identity

Operator
Country
US
Launch date
2023-03-03
Launch site
AFWTR
Launch vehicle
Mass (kg)
RCS (m²)

Purposes: comms

External: N2YO · Heavens-Above · Gunter

§ Orbital elements

Epoch: 2026-09-20T22:00:03.000096Z

Period
95.95 min
Inclination
70.0005°
Eccentricity
0.0005292
Mean motion
15.00777087 rev/d
Perigee alt
560.8 km
Apogee alt
568.2 km
Semi-major
6,942.6 km
B*
6.6563e-3
RAAN
72.0116°
Arg perigee
290.8206°
Mean anomaly
96.9138°
Rev number
577

§ Raw data

STARLINK-58171 55779U 23028AQ  26263.91670139  .00085599  00000+0  66563-2 0  99962 55779  70.0005  72.0116 0005292 290.8206  96.9138 15.00777087  5776

JSON: /api/v1/satellites/55779 · /tle

For live sub-satellite position, see the globe view (requires WebGL).

§ Visibility from observer

Set your observer location to see the next 7 days of passes ≥ 10°. The values pass through the URL so the page stays shareable.

No JS? Fill the form by hand. The geolocation button needs JavaScript.